Location: Ferintosh
(52.7647°N, 112.9692°W)
Time: 23:33:36
(UTC+00:00)

S-56A Canister/Altair - Pass Details

Date: 29 May 2024
Orbit: 637 x 2489 km, 38.9° (Epoch: 19 June)

Event Time Altitude Azimuth Distance (km) Brightness Sun altitude
Rises 11:01:20 0° 215° (SW) 6,153 - -2.5°
Exits shadow 11:01:49 - 214° (SW) 6,046 11.4 -2.4°
Reaches altitude 10° 11:06:09 10° 206° (SSW) 5,121 11.2 -2.0°
Maximum altitude 11:17:41 29° 154° (SSE) 3,460 10.8 -0.6°
Drops below altitude 10° 11:27:18 10° 101° (E) 4,248 12.0 0.5°
Sets 11:30:50 0° 91° (E) 4,983 12.7 1.0°
